Regional Weather Roundup
Issued by NWS Cleveland, OH

Home | Current Version | Previous Version | Graphics & Text | Print | Product List | Glossary On
Versions: 1 2 3 4 5 6 7 8 9 10 11 12 13 14 15 16 17 18 19 20 21 22 23 24 25 26 27 28 29 30 31 32 33 34 35 36 37 38 39 40 41 42 43 44 45 46 47 48 49 50
000
ASUS41 KCLE 231812
RWRCLE
OHIO REGIONAL WEATHER ROUNDUP
NATIONAL WEATHER SERVICE WILMINGTON, OH
200 PM EDT TUE MAY 23 2017

NOTE: "FAIR" INDICATES FEW OR NO CLOUDS BELOW 12,000 FEET WITH NO
SIGNIFICANT WEATHER AND/OR OBSTRUCTIONS TO VISIBILITY.

OHZ001>008-015>018-024>027-034-035-043-044-231900-
   NORTHWEST OHIO

CITY           SKY/WX    TMP DP  RH WIND       PRES   REMARKS
DEFIANCE       FAIR      69  39  33 S8        29.79F
FINDLAY        FAIR      73  48  41 SE13G18   29.77F
TOLEDO EXPRESS FAIR      71  46  40 S9        29.79F
TOLEDO EXEC    FAIR      74  48  39 E9        29.79F
LIMA           FAIR      70  45  40 E9        29.78F
$$

OHZ009>014-019>023-028>033-038-089-231900-
   NORTHEAST OHIO

CITY           SKY/WX    TMP DP  RH WIND       PRES   REMARKS
CLE-HOPKINS    PTSUNNY   75  47  36 SE10G17   29.82F
CLE-LAKEFRONT  FAIR      66  52  60 NE8       29.80F
CUY CO. ARPT   PTSUNNY   73  52  46 SE13      29.83F
LORAIN-ELYRIA  FAIR      72  45  37 S10       29.80F
ASHTABULA      FAIR      71  48  43 SE7       29.84F
AKRON-CANTON   FAIR      72  46  39 SE13G22   29.81F
WOOSTER        FAIR      72  47  40 SE13      29.81F
MANSFIELD      FAIR      71  46  40 SE12      29.80F
YOUNGSTOWN     CLOUDY    71  45  39 E9        29.83F
$$

OHZ042-051>053-060>062-070>072-077>081-231900-
  SOUTHWEST OHIO

CITY           SKY/WX    TMP DP  RH WIND       PRES   REMARKS
CINC-COVINGTON PTSUNNY   73  48  41 SE8       29.75F
CINC-LUNKEN    FAIR      74  53  48 S6        29.75F
HAMILTON       FAIR      74  50  42 SE6       29.76F
DAYTON         PTSUNNY   71  48  43 E5        29.77F
WRIGHT-PAT AFB FAIR      71  49  44 SE7       29.76F
DAYTON GENERAL FAIR      72  49  44 E6        29.76F
WILMINGTON     FAIR      70  52  52 E7        29.77F
$$

OHZ036-037-039>041-045>050-054>059-063>069-073>076-082>088-231900-
  CENTRAL AND SOUTHEAST OHIO

CITY           SKY/WX    TMP DP  RH WIND       PRES   REMARKS
COLUMBUS       PTSUNNY   73  50  44 E8        29.76F
OSU AIRPORT    FAIR      73  49  42 NE6       29.76F
BOLTON FIELD   SUNNY     72  52  49 E5        29.78F
RICKENBACK AFB FAIR      71  50  48 SE3       29.77F
NEWARK         FAIR      74  45  35 E10       29.77F
MARION         FAIR      72  43  35 SE12G20   29.79F
LANCASTER      FAIR      74  52  46 SE9       29.78F
ZANESVILLE     FAIR      72  49  44 E8        29.78F
NEW PHILLY     FAIR      73  48  41 VRB6      29.81F
$$



USA.gov is the U.S. government's official web portal to all federal, state and local government web resources and services.